This is the latest recevied weather packets stored in our database for station/object DK9HI-WX. If no packets are shown the sender has not sent any weather packets the latest 10 day(s).
| Time | Temp. | Humidity | Pressure | Rain* | Wind** | Luminosity | Snow |
|---|---|---|---|---|---|---|---|
| 1788048622 | 19.44° C | 100% | 1009.8 hPa | - | - | - | - |
| 1788048022 | 19.44° C | 100% | 1009.9 hPa | - | - | - | - |
| 1788047427 | 19.44° C | 100% | 1009.9 hPa | - | - | - | - |
| 1788046822 | 19.44° C | 100% | 1010 hPa | - | - | - | - |
| 1788046222 | 19.44° C | 100% | 1010.1 hPa | - | - | - | - |
| 1788045622 | 20° C | 100% | 1010.1 hPa | - | - | - | - |
| 1788045022 | 20° C | 100% | 1010.2 hPa | - | - | - | - |
| 1788044422 | 20° C | 100% | 1010.4 hPa | - | - | - | - |
| 1788043822 | 20° C | 98% | 1010.4 hPa | - | - | - | - |
| 1788043222 | 20° C | 97% | 1010.5 hPa | - | - | - | - |
| 1788042622 | 20° C | 93% | 1010.7 hPa | - | - | - | - |
| 1788042022 | 20.56° C | 90% | 1010.5 hPa | - | - | - | - |
| 1788041422 | 20.56° C | 83% | 1011 hPa | - | - | - | - |
| 1788040822 | 21.11° C | 79% | 1010.9 hPa | - | - | - | - |
| 1788040222 | 21.11° C | 77% | 1010.9 hPa | - | - | - | - |
| 1788039622 | 21.67° C | 75% | 1010.8 hPa | - | - | - | - |
| 1788039022 | 21.67° C | 70% | 1010.9 hPa | - | - | - | - |
| 1788038422 | 21.67° C | 69% | 1010.9 hPa | - | - | - | - |
| 1788037822 | 21.67° C | 71% | 1010.9 hPa | - | - | - | - |
| 1788037222 | 21.67° C | 71% | 1010.9 hPa | - | - | - | - |
| 1788036622 | 21.67° C | 71% | 1011 hPa | - | - | - | - |
| 1788036022 | 22.22° C | 71% | 1011 hPa | - | - | - | - |
| 1788035422 | 22.22° C | 70% | 1011.1 hPa | - | - | - | - |
| 1788034822 | 22.22° C | 70% | 1011.2 hPa | - | - | - | - |
| 1788034222 | 22.22° C | 71% | 1011.5 hPa | - | - | - | - |
* Rain since midnight (hover to see other rain measurements)
** Current wind speed in m/s (hover to see current wind gust speed)